Hlavní strana
METAR-TAF:

METAR-TAF

Letiště :

Siler City, Severní Karolína, Spojené státy americké

zeměpisná šířka: 35-42-15N, zeměpisná délka: 079-30-15W, výška: 187 m

Aktuální stav počasí

Zpráva byla vytvořena před 23 minutami, v 02:35 UTC
Jižní vítr 3 kt
Teplota 21°C
Vlhkost vzduchu 100%
Tlak 1018 hPa
Viditelnost: 16.1 km
Polojasno ve výšce 900 ft
Polojasno ve výšce 1200 ft

METAR: KSCR 300235Z AUTO 18003KT 10SM SCT009 SCT012 21/21 A3005 RMK AO2 T02060205

Čas: 22:58 (02:58 UTC)


TAF: chybějící

Stav a předpovědi počasí z více než 4 000 letišť (zprávy METAR a TAF).

Červené a žluté tečky na mapě představují dostupné meteorologické stanice.

Když kurzor umístíte na tečku, zobrazí se název stanice.

Pak kliknutím zobrazíte stav a předpověď počasí.

Chcete-li změnit mapu, kliknutím na zelené tlačítko se znaménkem +mapu přiblížíte, kliknutím na zelené tlačítko se znaménkem – mapu oddálíte a kliknutím na zelené šipky přejdete na sousední mapy.


METAR-TAF: